Terminal Aerodrome Forecast
Issued by NWS

Home | Current Version | Previous Version | Text Only | Print | Product List | Glossary On
Versions: 1 2 3 4 5 6 7 8 9 10 11 12 13 14 15
000
FTUS45 KABQ 032339
TAFTCC
TAF
KTCC 032339Z 0400/0424 18011KT P6SM VCSH SCT060 BKN100
     FM040400 16010KT P6SM SCT100
     FM040900 VRB06KT P6SM FEW120
     FM042100 14008KT P6SM FEW120=

USA.gov is the U.S. government's official web portal to all federal, state and local government web resources and services.